ORBCOMM FM 5 DEB, 51448

Orbit data source: Space-Track

ORBCOMM FM 5 DEB, 51448 is space debris in LEO originally from a launch on Tue, 23 Dec 1997 UTC launched from the Pegasus Launch, Eastern Range Air Space (ERAS). Debris objects in space refer to the collection of defunct objects orbiting the Earth. Examples of debris include non-operational satellites, rocket bodies, and fragments generated from explosions, collisions, or faulty payload assembly.

Loading next visibility...
Identifier
51448, 1997-084X
Orbit
LEO
Country
Flag of USUS / ORB
Related business
Manufacturer
OSC-Germantown
Mission
Spacecraft
Bus & Motor
Unknown
Mass
Unknown
Launch date (UTC)
1997-12-23 (28 years ago)
Launch vehicle
Unknown
Launch site
Pegasus Launch, Eastern Range Air Space (ERAS)
Object type
Payload
Rocket body
Debris
Shape & HBR
Unknown shape, 0.1 m
Radar Cross Section
Medium (>0.1 m² and <1 m²)

Expand to show TLE details & history
Last TLE update: 2 days ago

TLE from 2 days ago
0 ORBCOMM FM 5 DEB
1 51448U 97084X   26171.31622237  .00000023  00000-0  58995-4 0  9998
2 51448  45.0110 179.3085 0036567 352.6219   7.4086 14.32948806237241
Epoch: 2026-06-20T07:35Z
TLE epoch observation values (Epoch: 2026-06-20T07:35:21.612Z)
Latitude
0.00001°
Longitude
156.93586°
Altitude
755.932 km
Speed
7.492 km/s
True Right ascension
11h 57m 14s
True Declination
0° 00' 00"
Sunlit
Object was in daylight at epoch
Visualization orbit readout
Latitude
Unknown
Longitude
Unknown
Altitude
Unknown
Speed
Unknown
Apparent Right ascension
Unknown
Apparent Declination
Unknown
Sunlit
N/A
Visualization observer readout
Local Sidereal Time
23:08:20
Azimuth
Unknown
Elevation
Unknown
Doppler factor
Unknown
Orbital elements
Apogee altitude
809.619 km
Perigee altitude
757.244 km
Semi-major axis
7,161.569 km
Eccentricity
0.00366
Inclination
45.011°
RAAN
179.3085°
Arg. of periapsis
352.6219°
True anomaly
7.46288°
Mean anomaly
7.4086°
Eccentric anomaly
7.43571°
Mean motion
3.58122 °/min
Orbital period
100.52 mins
BSTAR
0.000058995
Loading maneuver chart data...
Computing Atmospheric mass density...

Documentation

Showing up to 5 results
|